Location: Allen Generating Plant
(35.0740°N, 90.1490°W)
Time: 16:25:28
(UTC+00:00)

A-11 Canister half - Visible Passes

Search period start: 14 December 2025 00:00
Search period end: 24 December 2025 00:00
Orbit: 1526 x 1681 km, 47.3° (Epoch: 13 December)

Date Brightness Start Highest point End Pass type
(mag) Time Alt. Az. Time Alt. Az. Time Alt. Az.
14 Dec 10.0 23:24:48 10° WNW 23:34:22 52° SW 23:43:37 10° SSE visible
15 Dec 10.0 23:02:52 10° WNW 23:12:32 55° SW 23:21:55 10° SSE visible
16 Dec 11.7 01:13:22 10° WSW 01:15:58 11° WSW 01:18:33 10° SW visible
16 Dec 12.1 12:18:36 10° SE 12:22:42 13° ESE 12:26:48 10° E visible
17 Dec 11.7 00:50:31 10° W 00:54:13 13° WSW 00:57:53 10° SW visible
17 Dec 12.1 11:57:47 10° SE 12:00:56 12° ESE 12:04:07 10° E visible
18 Dec 11.7 00:27:57 10° W 00:32:28 14° WSW 00:36:55 10° SSW visible
18 Dec 12.0 11:37:29 10° SE 11:39:10 11° ESE 11:40:52 10° ESE visible
19 Dec 11.7 00:05:33 10° W 00:10:42 15° WSW 00:15:49 10° SSW visible
19 Dec 11.7 23:43:14 10° W 23:48:56 17° WSW 23:54:36 10° SSW visible
20 Dec 11.7 23:20:59 10° W 23:27:11 19° WSW 23:33:18 10° SSW visible
21 Dec 10.4 12:28:03 10° SSW 12:37:09 44° SE 12:46:29 10° ENE visible
22 Dec 10.5 12:06:23 10° SSW 12:15:21 42° SE 12:24:32 10° ENE visible
23 Dec 10.5 11:44:45 10° SSW 11:53:33 39° SE 12:02:33 10° ENE visible
